Location: Tel Aviv
(32.0670°N, 34.7670°E)
Time: 03:12:19
(UTC+03:00)

Tiros 1 - Pass Details

Date: 28 January 2022
Orbit: 629 x 663 km, 48.4° (Epoch: 26 May)

Event Time Altitude Azimuth Distance (km) Brightness Sun altitude
Rises 00:21:30 0° 309° (NW) 2,992 - -74.9°
Reaches altitude 10° 00:25:57 10° 348° (NNW) 2,075 - -74.4°
Maximum altitude 00:27:05 11° 1° (N) 2,024 - -74.3°
Drops below altitude 10° 00:28:13 10° 15° (NNE) 2,072 - -74.2°
Sets 00:32:38 0° 54° (NE) 2,974 - -73.7°
